Regional Weather Roundup
Issued by NWS Midland/Odessa, TX

Skip options and go directly to product.
Home | Oldest Version | Next Version | Current Version | All | Text Only | Save Text | Print | Product List | Glossary On

Skip product version selection by date and time.   
119
ASUS44 KMAF 301302
RWRMAF
MIDLAND AREA WEATHER ROUNDUP
NATIONAL WEATHER SERVICE MIDLAND TX
800 AM CDT WED JUL 30 2014

...IN SOUTHWEST TEXAS AND SOUTHEAST NEW MEXICO...

CITY           SKY/WX    TMP DP  RH WIND       PRES   REMARKS
ALPINE         PTCLDY    77  49  37 SW7       30.21S
ANDREWS        FAIR      75  52  43 S7        30.04F
ARTESIA        PTCLDY    68  63  83 NW6       30.06S
BIG SPRING     CLOUDY    79  58  48 S15       30.05S
CARLSBAD       PTCLDY    76  49  38 CALM      30.03R
DRYDEN           N/A     79  59  50 NE7       30.02S
FORT STOCKTON  PTCLDY    77  51  40 SE10      30.05R
GUAD PASS      PTCLDY    72  49  44 W13       30.21S
HOBBS          PTCLDY    70  50  49 S5        30.08S
MARFA          CLOUDY    66  52  59 N3        30.21F
MIDLAND AIRPK  PTSUNNY   78  53  41 S8        30.04S
MIDLAND INTL   PTSUNNY   79  55  43 S14       30.03F
ODESSA         PTSUNNY   79  52  38 S13       30.04F
PECOS          PTCLDY    72  49  44 W5        30.00R
PRESIDIO       FAIR      81  51  35 N6        30.05R
SEMINOLE       PTSUNNY   69  60  74 CALM      30.07S
SNYDER         CLOUDY    72  67  84 S8        30.04S
WINK           PTCLDY    78  52  40 SE9       30.00S
$$
...OTHER STATIONS IN TEXAS...

CITY           SKY/WX    TMP DP  RH WIND       PRES   REMARKS
ABILENE        CLOUDY    76  65  68 S10       30.04S
AMARILLO       CLOUDY    66  65  96 S7        30.09S FOG
AUSTIN         MOSUNNY   76  72  87 S5        30.04S
BROWNSVILLE    SUNNY     78  76  93 SE6       30.02S
CORPUS CHRISTI PTSUNNY   77  74  90 SE6       30.03R
DALLAS FTW     LGT RAIN  76  70  82 E6        30.07R
DEL RIO        SUNNY     77  63  61 E8        30.01R
EL PASO        MOCLDY    73  66  78 CALM      30.08S
HOUSTON INT    MOSUNNY   76  74  93 CALM      30.05S
LUBBOCK        PTSUNNY   68  65  90 SE8       30.07F
SAN ANGELO     MOSUNNY   77  60  55 S14G21    30.03S
SAN ANTONIO    PTSUNNY   77  71  82 S9        30.05R
WACO           CLOUDY    78  70  76 S9        30.04S
WICHITA FALLS  NOT AVBL
$$
...OTHER LOCATIONS IN NEW MEXICO...

CITY           SKY/WX    TMP DP  RH WIND       PRES   REMARKS
ALAMAGORDO     PTCLDY    66  63  88 CALM      30.12R
ALBUQUERQUE    PTCLDY    67  59  75 N3        30.22R
CANNON AFB     SUNNY     66  63  88 S3        30.11S
CLOVIS         NOT AVBL
HOLLOMAN AFB   PTCLDY    70  64  83 CALM      30.10R
ROSWELL        PTCLDY    70  67  90 NW3       30.07R
RUIDOSO        CLEAR     64  54  68 SW3       30.31R
SANTA FE       PTCLDY    60  56  86 W7G17     30.26
TRUTH OR CONSE PTCLDY    69  56  62 CALM      30.16R
TUCUMCARI      SUNNY     68  65  90 NE3       30.10R
$$

USA.gov is the U.S. government's official web portal to all federal, state and local government web resources and services.